Location: Jackson Park
(37.2862°N, 79.9123°W)
Time: 12:08:30
(UTC+00:00)

Vanguard 2 Rocket - Pass Details

Date: 19 May 2026
Orbit: 553 x 3286 km, 32.9° (Epoch: 11 June)

Event Time Altitude Azimuth Distance (km) Brightness Sun altitude
Rises 19:51:15 0° 280° (W) 6,179 11.7 52.1°
Reaches altitude 10° 19:54:58 10° 277° (W) 5,448 11.6 51.4°
Maximum altitude 20:12:06 57° 205° (SSW) 3,632 11.1 48.1°
Drops below altitude 10° 20:30:55 10° 133° (SE) 5,897 10.9 44.4°
Sets 20:35:10 0° 129° (SE) 6,690 11.0 43.6°
